{"data":{"norad_id":56404,"epoch":"2026-09-20T03:48:05.839488Z","epoch_age_seconds":141410,"freshness":"FRESH","line1":"1 56404U 23061AG  26263.15840092  .00000804  00000+0  38760-4 0  9998","line2":"2 56404  43.0016 168.9827 0001222 264.3551  95.7161 15.27568656186611","mean_motion":15.27568656,"eccentricity":0.0001222,"inclination_deg":43.0016,"raan_deg":168.9827,"arg_perigee_deg":264.3551,"mean_anomaly_deg":95.7161,"bstar":3.876e-5,"rev_number":18661,"period_min":94.267448755508,"perigee_km":482.24462317499,"apogee_km":483.9215053587,"semimajor_km":6861.2200642668,"source":"CELESTRAK","updated_at":"2026-09-21T09:00:33.435459Z"}}